Weather in Sambreville

Belgium     50°14′59″N   4°23′05″E
temp.,
°C
wind,
m/s
gust,
m/s
humid.,
%
clouds,
%
prec.,
mm/h
press.,
hPa
HPBL,
m
24 september, fri
fri2423:00+12wsw369367 0.0 1020124
02:00+13sw3791100 0.0 1019187
05:00+14sw4897100 0.0 1018243
08:00+13sw4997100 0.1 1018330
11:00+14sw5892100 0.1 1019416
14:00+17wsw568179 0.1 1018711
17:00+19wsw467284 0.1 10161023
20:00+14sw33860 0.1 101729
25 september, sat
sat2523:00+12sw33890 0.0 101739
02:00+11ssw23900 0.0 101729
05:00+11ssw33900 0.0 101735
08:00+11ssw22893 0.0 101726
11:00+17s2270100 0.0 1017262
14:00+20s125785 0.0 1016758
17:00+22sse125295 0.0 10151042
20:00+16ese117731 0.0 101512
26 september, sun
sun2623:00+14se2280100 0.0 101512
02:00+15sse2278100 0.0 101525
05:00+15sse237860 0.0 101446
08:00+13s369496 0.0 1015105
11:00+20ssw46735 0.0 1015451
14:00+22sw576363 0.0 10151182
17:00+19ssw597698 1.0 1014527
20:00+15s5119216 1.0 1015266
27 september, mon
mon2723:00+14s499686 0.0 1016200
02:00+15s4989100 0.0 1015220
05:00+15s61285100 0.1 1014390
08:00+14ssw61390100 0.1 1015394
11:00+16ssw71485100 0.1 1016919
14:00+14w59802 1.0 1020770
17:00+17w57594 0.0 10211543
20:00+11w347419 0.0 102472
28 september, tue
tue2823:00+9wsw2278100 0.0 102616
02:00+8s1179100 0.0 102613
05:00+8s1180100 0.0 102612
08:00+8se2281100 0.0 102516
11:00+13se2267100 0.0 1024230
14:00+15se1259100 0.0 1022616
17:00+16sse1359100 0.0 1020828
20:00+11s33775 0.0 101929